Regional Weather Roundup
Issued by NWS

Home | Current Version | Previous Version | Graphics & Text | Print | Product List | Glossary On
Versions: 1 2 3 4 5 6 7 8 9 10 11 12 13 14 15 16 17 18 19 20 21 22 23 24 25 26 27 28 29 30 31 32 33 34 35 36 37 38 39 40 41 42 43 44 45 46 47 48 49 50
000
ASUS45 KBOU 011310
RWRCO

WEATHER ROUNDUP FOR COLORADO
NATIONAL WEATHER SERVICE PUEBLO CO
700 AM MDT SAT AUG 01 2015

NOTE: "FAIR" INDICATES FEW OR NO CLOUDS BELOW 12000 FEET WITH NO
SIGNIFICANT WEATHER AND/OR OBSTRUCTIONS TO VISIBILITY.

COZ001>005-013-030-031-011400-
...NORTHWEST COLORADO...

CITY           SKY/WX    TMP DP  RH WIND       PRES   REMARKS
CRAIG          PTCLDY    45  36  70 CALM      30.30R
HAYDEN         PTCLDY    55  34  44 SE9       30.31R
MEEKER         CLEAR     50  35  56 CALM      30.31R
MOUNT WERNER   NOT AVBL
STEAMBOAT SPGS FAIR      46  39  76 CALM      30.34R
WALDEN         FAIR      48  39  71 E5        30.41S
$$

COZ006>008-011-011400-
...WEST CENTRAL VALLEYS...

CITY           SKY/WX    TMP DP  RH WIND       PRES   REMARKS
GRAND JUNCTION CLEAR     68  45  43 SE9       30.18R
MONTROSE       PTCLDY    60  48  64 S5        30.29R
EAGLE          CLEAR     54  41  62 E6        30.37R
RIFLE          PTCLDY    58  41  53 CALM      30.27R
DELTA          NOT AVBL
NUCLA          FAIR      61  46  59 E8        30.33R
$$

COZ017>023-064>068-011400-
...SOUTHWEST COLORADO...

CITY           SKY/WX    TMP DP  RH WIND       PRES   REMARKS
DURANGO        LGT RAIN  60  53  77 N3        30.35R
CORTEZ         MOCLDY    63  58  83 NE3       30.29R
PAGOSA SPRINGS FAIR      56  53  92 CALM      30.43S
TELLURIDE      CLOUDY    56  48  76 SE6       30.51S
WOLF CREEK PAS NOT AVBL
$$

COZ009-010-012-014-032>034-037-058>063-011400-
...CENTRAL COLORADO...

CITY           SKY/WX    TMP DP  RH WIND       PRES   REMARKS
ASPEN          CLEAR     50  43  77 W3        30.41R
BUENA VISTA    CLOUDY    53  46  77 NW7       30.43F
COPPER MTN     PTCLDY    54  34  47 W10       30.72R
BERTHOUD PASS  FAIR      45  36  70 NW8       30.75S
COTTONWOOD PAS CLOUDY    59  41  51 W6        30.55S
GUNNISON       CLOUDY    52  45  76 CALM      30.46S
KREMMLING      CLEAR     50  41  71 CALM      30.42R
LEADVILLE      CLEAR     42  39  89 NE5       30.55S
MONARCH PASS   CLOUDY    46  41  81 SW13      30.80S
SALIDA         NOT AVBL
NIWOT RIDGE    NOT AVBL
SUNLIGHT       PTCLDY    54  39  58 CALM      30.65R
WILKERSON PASS PTCLDY    48  41  76 W7        30.67S
$$

COZ069>075-011400-
...SAN LUIS VALLEY/SANGRE DE CRISTO MOUNTAINS...

CITY           SKY/WX    TMP DP  RH WIND       PRES   REMARKS
ALAMOSA        CLOUDY    55  53  93 N3        30.41R
LA VETA PASS   MOCLDY    46  43  87 MISG      30.56R
SAGUACHE       CLOUDY    55  48  76 NW6       30.44R
$$

COZ035-036-038>040-011400-
...NORTHERN COLORADO FRONT RANGE...

CITY           SKY/WX    TMP DP  RH WIND       PRES   REMARKS
DENVER INTL AP MOSUNNY   65  53  65 SE5       30.19S
DMNS CITY PARK NOT AVBL
AURORA         MOSUNNY   66  56  70 S9        30.21S
FRONT RANGE AP NOT AVBL
ERIE MUNI ARPT FAIR      60  54  79 CALM      30.18S
BOULDER MUN AP FAIR      63  52  67 CALM      30.18S
CENTENNIAL     MOSUNNY   67  53  61 SW8       30.23R
BROOMFIELD     NOT AVBL
LOVELAND       SUNNY     61  54  77 N7        30.20R
LONGMONT       FAIR      63  53  69 CALM      30.20R
$$

COZ041-046-047-076>085-087-088-011400-
...PIKES PEAK/PALMER DIVIDE AND SOUTHERN FOOTHILLS...

CITY           SKY/WX    TMP DP  RH WIND       PRES   REMARKS
COLO. SPRINGS  PTSUNNY   61  56  83 N3        30.30R
A. F. ACADEMY  MOSUNNY   55  50  83 N6        30.30S
ELLICOTT       FAIR     N/A N/A N/A SE3       30.27S
FALCON         FAIR      60  59  96 W5        30.34S
FORT CARSON    CLOUDY    62  54  74 NW5       30.26S
LIMON          SUNNY     56  54  93 N3        30.23F
MONUMENT HILL  MOSUNNY   59  54  82 S10       30.32S
TRINIDAD       SUNNY     61  55  81 W5        30.26R
$$

COZ042>045-048>051-090-091-011400-
...NORTHEAST COLORADO...

CITY           SKY/WX    TMP DP  RH WIND       PRES   REMARKS
GREELEY ARPT   SUNNY     61  54  77 CALM      30.17S
AKRON          SUNNY     66  61  84 SW10      30.17S
BURLINGTON     SUNNY     65  61  87 SW6       30.17F
WRAY           FAIR      65  60  83 SW8       30.13S
STERLING       FAIR      61  59  94 CALM      30.13S
HOLYOKE        NOT AVBL
FORT MORGAN    FAIR      64  57  80 NE3       30.16F
$$

COZ086-089-092>099-011400-
...SOUTHEAST COLORADO...

CITY           SKY/WX    TMP DP  RH WIND       PRES   REMARKS
PUEBLO         SUNNY     67  57  70 NW3       30.19F
LA JUNTA       SUNNY     67  63  87 CALM      30.16R
LAMAR          SUNNY     66  63  90 E5        30.13S
SPRINGFIELD      N/A     65  65 100 S9        30.17F
$$




USA.gov is the U.S. government's official web portal to all federal, state and local government web resources and services.